Regional Weather Roundup
Issued by NWS

Current Version |  Previous Version |  Text Only |  Print | Product List |  Glossary On
Versions: 1 2 3 4 5 6 7 8 9 10 11 12 13 14 15 16 17 18 19 20 21 22 23 24 25 26 27
051
ASUS44 KBMX 262110
RWRAL

ALABAMA REGIONAL WEATHER ROUNDUP
NATIONAL WEATHER SERVICE BIRMINGHAM AL
400 PM CDT SUN MAY 26 2024

NOTE: "FAIR" INDICATES FEW OR NO CLOUDS BELOW 12,000 FEET
WITH NO SIGNIFICANT WEATHER AND/OR OBSTRUCTIONS TO VISIBILITY.

THE REMARK "TC" DENOTES TEMPERATURE IN DEGREES CELSIUS.

ALZ001>011-014-016>018-020-262200-
NORTH ALABAMA

CITY           SKY/WX    TMP DP  RH WIND       PRES   REMARKS
MUSCLE SHOALS  SUNNY     89  68  49 S14G22    29.76S HX  93  TC  32
HUNTSVILLE     PTSUNNY   89  66  46 S17G26    29.80F HX  91  TC  32
DECATUR        MOSUNNY   87  67  51 S15G25    29.80F HX  90  TC  31
HALEYVILLE     SUNNY     86  68  54 S15       29.82S TC  30
GADSDEN        SUNNY     86  69  56 S9        29.84S HX  90  TC  30
$$

ALZ012-013-022-023-030>036-040>044-262200-
WEST CENTRAL ALABAMA

CITY           SKY/WX    TMP DP  RH WIND       PRES   REMARKS
TUSCALOOSA     SUNNY     89  69  51 S12G25    29.79F HX  93  TC  32
DEMOPOLIS      MOSUNNY   91  70  49 S12       29.80S HX  96  TC  33
$$

ALZ015-024>026-033>036-041>044-262200-
CENTRAL ALABAMA

CITY           SKY/WX    TMP DP  RH WIND       PRES   REMARKS
BIRMINGHAM     PTSUNNY   90  65  43 S17       29.84F HX  92  TC  32
MONTGOMERY     SUNNY     91  69  48 S13G22    29.83F HX  96  TC  33
SHELBY CO ARPT MOSUNNY   89  69  51 S9G24     29.83S HX  93  TC  32
MAXWELL AFB    MOSUNNY   92  67  44 S13G20    29.81F HX  95  TC  33
GREENVILLE     MOSUNNY   87  68  52 SW12G23   29.84F HX  90  TC  31
SELMA          MOSUNNY   91  72  52 S10G18    29.82S HX  98  TC  33
PRATTVILLE     MOSUNNY   89  68  49 S6        29.83F HX  93  TC  32
BESSEMER       MOSUNNY   87  70  56 S13G21    29.84F HX  92  TC  31
TALLADEGA      MOSUNNY   88  70  55 S12       29.83R HX  92  TC  31
PELL CITY      MOSUNNY   88  70  55 S13       29.83S HX  92  TC  31
SYLACAUGA      MOSUNNY   89  69  52 SW9G17    29.86S HX  93  TC  31
JASPER         MOSUNNY   90  68  48 SW8G18    29.81F HX  93  TC  32
$$

ALZ019-021-028-029-037-038-045>048-262200-
EAST CENTRAL ALABAMA

CITY           SKY/WX    TMP DP  RH WIND       PRES   REMARKS
ANNISTON       MOSUNNY   88  69  53 S8        29.86S HX  92  TC  31
ALEXANDER CITY SUNNY     87  69  54 S12       29.85F HX  91  TC  31
AUBURN         PTSUNNY   87  71  58 S16       29.90F HX  93  TC  31
$$

ALZ051>064-262200-
SOUTHWEST ALABAMA

CITY           SKY/WX    TMP DP  RH WIND       PRES   REMARKS
MOBILE         PTSUNNY   89  72  56 S17G31    29.87F HX  96  TC  32
BROOKLEY FIELD PTSUNNY   87  74  64 S16G30    29.88F HX  95  TC  31
EVERGREEN      SUNNY     91  66  43 S17G25    29.85F HX  93  TC  33
$$

ALZ049-050-065>069-262200-
SOUTHEAST ALABAMA

CITY           SKY/WX    TMP DP  RH WIND       PRES   REMARKS
DOTHAN         MOSUNNY   91  68  46 S18G24    29.92F HX  95  TC  33
OZARK          SUNNY     90  66  44 S14       29.87F HX  92  TC  32
TROY           SUNNY     89  67  47 SW13G20   29.87F HX  92  TC  32
EUFAULA        PTSUNNY   90  68  48 SW9G23    29.88F HX  94  TC  32
$$